Regional Weather Roundup
Issued by NWS Wakefield, VA

Home | Current Version | Previous Version | Text Only | Print | Product List | Glossary On
Versions: 1 2 3 4 5 6 7 8 9 10 11 12 13 14 15 16 17 18 19 20 21 22 23 24 25 26 27 28 29 30 31 32 33 34 35 36 37 38 39 40 41 42 43 44 45 46 47 48 49 50
000
ASUS41 KAKQ 291314
RWRAKQ

REGIONAL WEATHER ROUNDUP
NATIONAL WEATHER SERVICE WAKEFIELD VA
900 AM EDT WED JUL 29 2015

Note: "fair" indicates few or no clouds below 12,000 feet with no
significant weather and/or obstructions to visibility. * = Denotes
station may not report precipitation (e.g., rain,snow,etc.),
thunder or fog.

VAZ042-051-052>054-056-291400-
NORTHERN VIRGINIA

CITY           SKY/WX    TMP DP  RH WIND       PRES   REMARKS
WASH NATIONAL  PTSUNNY   82  75  79 S6        30.02R
DULLES         CLOUDY    76  73  91 S6        30.03R
FORT BELVOIR   MOSUNNY   77  76  95 S2        30.02R
QUANTICO       CLOUDY    78  73  84 CALM      30.03R
FREDERICKSBRG* CLOUDY    29  29 100 CALM      30.02R FOG
STAFFORD*      CLOUDY    74  72  93 CALM      30.07R
WARRENTON      CLOUDY    75  75 100 CALM      30.03R
CULPEPER*      CLOUDY    73  72  99 CALM      30.03S FOG
MANASSAS*      CLOUDY    75  75 100 CALM      30.03R FOG
LEESBURG*      CLOUDY    77  75  94 S8        30.03S
WINCHESTER     CLOUDY    75  72  88 CALM      30.03S FOG
FRONT ROYAL*   CLOUDY    72  72 100 CALM      30.02S
LURAY*         PTSUNNY   73  73 100 CALM      30.04S
$$

VAZ048-049-060>072-079>083-291400-
CENTRAL AND SOUTH CENTRAL VIRGINIA

CITY           SKY/WX    TMP DP  RH WIND       PRES   REMARKS
RICHMOND       LGT RAIN  77  72  84 S5        30.03R
CHESTERFIELD*  CLOUDY    77  64  65 S7        30.05R
PETERSBURG*    CLOUDY    76  76 100 CALM      30.04R
HANOVER        CLOUDY    76  73  91 S6        30.04R
TAPPAHANNOCK*  MOSUNNY   78  73  84 S3        30.04R
QUINTON*       CLOUDY    77  73  86 SW3       30.03R
CHARLOTTSVILLE CLOUDY    75  72  90 CALM      30.04R FOG
GORDONSVILLE*  PTSUNNY   75  73  94 CALM      30.03R
ORANGE*        PTSUNNY   77  73  88 CALM      30.04R
LOUISA*        CLOUDY    77  73  88 CALM      30.03R
BUMPASS*       PTSUNNY   76  74  93 MISG      30.03R
FARMVILLE*     PTSUNNY   77  77 100 SW5       30.03R
CREWE*         CLOUDY   N/A N/A N/A CALM      30.03R
FORT PICKETT*  CLOUDY    75  73  92 S9        30.04R
CHASE CITY*    CLOUDY    78  75  90 CALM      30.05R
CLARKSVILLE*   CLOUDY    73  72  94 CALM      30.04R
SOUTH HILL*    CLOUDY    72  71  96 S6        30.10R
LAWRENCEVILLE* CLOUDY    75  73  94 SW5       30.04R
EMPORIA*       CLOUDY    77  72  83 CALM      30.04S
$$

VAZ088>098-291400-
SOUTHEAST VIRGINIA

CITY           SKY/WX    TMP DP  RH WIND       PRES   REMARKS
NORFOLK        SUNNY     82  71  69 SW8       30.03R
VIRGINIA BEACH MOSUNNY   83  73  72 SW8       30.02S
NORFOLK NAVAL  MOSUNNY   81  71  71 S6        30.04R
WEST POINT*    PTSUNNY   81  72  75 SW3       30.05R
SALUDA*        CLOUDY    77  73  85 SW3       30.03R
NEWPORT NEWS   PTSUNNY   80  71  74 SW8       30.04R
LANGLEY AFB    PTSUNNY   82  72  72 S7        30.03R
FORT EUSTIS    MOSUNNY   81  79  94 S7        30.02R
WILLIAMSBURG*  SUNNY     81  73  78 CALM      30.05R
HR EXEC AP*    FAIR      81  72  74 S8        30.05R
FRANKLIN*      SUNNY     80  71  75 S3        30.04R
WAKEFIELD      MOSUNNY   80  72  76 VRB3      30.04R
$$

VAZ020-022-025-037-045-291400-
WEST CENTRAL AND SOUTHWEST VIRGINIA

CITY           SKY/WX    TMP DP  RH WIND       PRES   REMARKS
STAUNTON*      CLOUDY    76  72  88 CALM      30.07S
WAYNESBORO*    CLOUDY    73  71  95 CALM      30.07S
HOT SPRINGS VA FOG       69  69 100 W7        30.17R VSB 1/4
LYNCHBURG      CLOUDY    73  72  96 S3        30.07R FOG
DANVILLE       PTSUNNY   74  72  93 S3        30.05R
SOUTH BOSTON*  CLOUDY    75  73  95 CALM      30.05R
MARTINSVILLE   CLOUDY    75  75 100 CALM      30.08S FOG
ROANOKE        CLOUDY    74  71  91 SW3       30.08R
BLACKSBURG     CLOUDY    73  71  96 CALM      30.14S FOG
DUBLIN*        CLOUDY    71  71 100 CALM      30.13R FOG
MARION*        CLOUDY    69  67  93 E5        30.15S FOG
HILLSVILLE*    CLOUDY    69  69 100 CALM      30.13R
RICHLANDS*     PTSUNNY   69  69 100 CALM      30.12R FOG
WISE*          SUNNY     75  73  94 SW5       30.13R
ABINGDON*      MOSUNNY   75  71  86 CALM      30.10R
$$

MDZ021>025-VAZ099-100-291400-
SOUTHERN MARYLAND AND THE DELMARVA PENINSULA

CITY           SKY/WX    TMP DP  RH WIND       PRES   REMARKS
PATUXENT RIVER PTSUNNY   77  72  84 SW9       30.02R
BAY BRIDGE APT   N/A     81  73  78 S3        30.02R
LEONARDTOWN    CLOUDY    77  70  78 CALM      30.04R
DOVER          SUNNY     80  80 100 S6        30.01R
GEORGETOWN     SUNNY     81  76  84 W7        30.03R
EASTON         MOSUNNY   81  81 100 CALM      30.05R
CAMBRIDGE      SUNNY     81  75  83 S3        30.02R
SALISBURY      MOSUNNY   81  76  84 S8        30.03R
OCEAN CITY     SUNNY     82  75  79 MISG      30.03R
WALLOPS ISLAND PTSUNNY   83  77  82 W5        30.04R
ACCOMACK*      HVY RAIN  79  77  94 S3        30.04
$$

NCZ012>017-030>032-291400-
NORTH CENTRAL AND EASTERN NORTH CAROLINA

CITY           SKY/WX    TMP DP  RH WIND       PRES   REMARKS
ROANOKE RAPIDS FAIR      79  72  78 CALM      30.04R
RALEIGH        PTSUNNY   79  72  79 S6        30.04R
ELIZABETH CITY SUNNY     82  73  74 SE8       30.03R
AHOSKIE*       PTSUNNY   77  71  80 CALM      30.04R
EDENTON*         N/A     80  70  71 SE5       30.02S
CURRITUCK*     SUNNY     81  71  72 CALM      30.03S
KILL DEVIL HLS MOSUNNY   84  73  70 SE5       30.02R
MANTEO         MOSUNNY   82  71  71 SE6       30.03R
CAPE HATTERAS  SUNNY     83  70  64 E8        30.01R
TARBORO*         N/A     80  73  79 CALM      30.03S
GOLDSBORO      SUNNY     81  73  76 SE3       30.00R
WASHINGTON     SUNNY     80  73  80 E3        30.02R
GREENVILLE     SUNNY     81  73  78 CALM      30.04R
NEW BERN       SUNNY     81  72  74 E5        30.02R
WILMINGTON     SUNNY     81  73  76 NE5       29.99R
$$

VAZ048-291400-
ELSEWHERE

CITY           SKY/WX    TMP DP  RH WIND       PRES   REMARKS
HARRISBURG PA  PTSUNNY   80  71  74 CALM      30.01S
BALTIMORE      PTSUNNY   80  73  79 CALM      30.02R
ANNAPOLIS      SUNNY     81  72  74 VRB3      30.01R
ANDREWS AFB    MOSUNNY   81  74  80 S7        30.02R
PHILADELPHIA   PTSUNNY   82  72  71 SW6       30.01R
HENDERSON NC   PTSUNNY   74  68  79 SE3       30.05R
GREENSBORO     PTSUNNY   77  72  84 SW5       30.05R
ROCKY MOUNT    MOSUNNY   81  72  74 S5        30.03R
$$

VAZ100-291400-
MARINE

STATION/POSITION TIME  TEMP    WIND        PRES    WAVE   SWELL
                       AIR SEA DIR/SP/G            HT/PER HT/PER
                 (UTC) (F)     (DEG/KT/KT) (MB)    (FT/S) (FT/S)
BRANDYWINE LGT   1200   75 75  240/  7/  8 1016.5R
CAPE MAY NJ      1200   77 79  240/  5/  5 1016.0R
LEWES DE         1200   78 74  240/  3/  5 1016.2R
15NM E FENWICK I 1250   78 79  240/  6/  8 1016.9R   2/10   2/10
OCEAN-CITY-INLET 1200   77 74  250/  4/  5 1015.7R
WACHAPREAGUE VA  1200   82 82              1016.7R
GOOSES REEF MD   1300   81 82  230/ 10/ 10 1017.5R
COVE POINT MD    1200   78     230/  7/  9 1016.6R
SOLOMONS ISLAND  1200      82                N/A
BISHOPS HEAD MD  1200   80 82  240/ 11/ 13 1015.4R
POTOMAC MD       1300   79 83  250/ 12/ 14 1015.7R   1/ 2
CAMBRIDGE MD     1200   79 83  130/  1/  5 1015.2R
LEWISETTA VA     1200   78 84  240/  8/ 10 1016.0R
RAPPAHANNOCK LGT 1200          210/  7/  8 1017.0R
STINGRAY PT      1300   80 82  220/  6/  8 1017.1R   1/ 2
YORK RVR RNG VA  1200   79     230/  8/ 10 1015.9R
YORKTOWN VA      1200   78 83  220/  7/ 11 1016.0R
JAMESTOWN VA     1300   79 84  220/  2/  4   N/A
DOMINION TERM VA 1200   78     240/  5/  5 1016.5R
KIPTOPEKE VA     1200      81  200/  8/  9   N/A
CHES BAY BRIDGE  1200   78 80  180/  5/  6 1016.2R
CAPE HENRY VA    1200   78     180/  5/  7   N/A
CHESAPEAKE LGHT  1200   79     200/ 10/ 10 1017.4R
WILLOUBY STN VA  1200   78     230/  8/  9 1017.5R
CAPE HENRY BUOY  1228      81                N/A     3/11   2/11
1ST LANDING BUOY 1300      81              1016.6R   1/ 4
CAPE CHARLES BUO 1226      80                N/A     2/11   2/11
OFFSHORE WE BUOY 1211      81                N/A     3/ 6   2/ 6
64NM E OF VA BCH 1250   80 81  170/  4/  4 1016.7R   2/10   2/10
DUCK PIER NC     1200   79 64  140/  3/  4 1015.8R
44100 DUCK FRF   1224      81                N/A     2/10   2/11
44056 DUCK FRF   1211      78                N/A     2/10
OREGON INLET NC  1200   81 82  120/  6/  7 1016.3R
HATTERAS NC      1200   82 82  100/  6/  9 1015.6S
CAPE LOOKOUT NC  1300   81      70/ 11/ 12 1015.3R
$$


USA.gov is the U.S. government's official web portal to all federal, state and local government web resources and services.